Retour au catalogue

TOMS EP

ActifScienceSSO
NORAD 23940·PAYLOAD·🇺🇸 United States

Lancé Jul 2, 1996 depuis Vandenberg Space Force Base

Loading…

Prochains Passages (prochaines 24 heures)

TLE

FraisSource: Space-Track

Époque: Sep 14, 2026, 04:40 UTC

1 23940U 96037A   26257.19472202  .00000369  00000-0  87221-4 0  9994
2 23940  98.5191  68.3072 0024881 290.2642  69.5882 14.60010898605014

Suivez TOMS EP en temps réel avec AllMySat

Download on the App Store